STARLINK-4710, 53799

Orbit data source: Space-Track

STARLINK-4710, 53799 is a payload satellite owned by SpaceX/Seattle (US) in LEO that was launched on Sun, 11 Sep 2022 UTC via an FALCON 9 launch vehicle from the Air Force Eastern Test Range (AFETR). Payload-class satellites include a variety of spacecraft equipped with specific instruments for various scientific and technological missions. These include communications satellites like Starlink; space stations such as the ISS; scientific satellites like the Hubble; Earth observation satellites from companies like Planet Labs, Umbra, and HawkEye 360; GPS; miniature CubeSats for education and research; and military/defense satellites.

Loading next visibility...
Identifier
53799, 2022-111AC
Orbit
LEO
Last TLE update
8 hours ago
Origin
Manufacturer
SpaceX/Seattle
Mission
Operational Commercial Communications
Bus & Motor
STARLINK, Unknown motor
Mass
305 kg wet, ~290 kg dry
Launch date (UTC)
2022-09-11 (3 years ago)
Launch vehicle
FALCON 9
Launch site
Air Force Eastern Test Range (AFETR)
Object type
Payload
Rocket body
Debris
Shape & HBR
Box + 1 Pan, 8.86 m
Radar Cross Section
13.562 m², Large (>1 m²)

Expand to show TLE details & history

TLE from 8 hours ago
0 STARLINK-4710
1 53799U 22111AC  25129.43774433  .00000879  00000-0  73283-4 0  9995
2 53799  53.2163 190.0298 0001204  88.9802 271.1329 15.08842894147079
Epoch: 2025-05-09T10:30Z
Definitive object data (Epoch: 2025-05-09T10:30:21.11Z)
Latitude
0.00007°
Longitude
164.948°
Altitude
540.616 km
Speed
7.593 km/s
True Right ascension
12h 40m 07s
True Declination
0° 00' 00"
Sunlit
Object was in full shadow at TLE epoch
Visualization TLE readout
Latitude
51.9455°
Longitude
-88.39875°
Altitude
545.196 km
Speed
7.596 km/s
Apparent Right ascension
17h 14m 51s
Apparent Declination
10° 15' 20"
Sunlit
Object is in daylight
Visualization observer readout
Local Sidereal Time
03:04:55
Azimuth
321.703° NNW
Elevation
-31.495°
Doppler factor
1
Orbital elements
Apogee altitude
540.813 km
Perigee altitude
539.147 km
Semi-major axis
6,918.117 km
Eccentricity
0.0001204
Inclination
53.2163°
RAAN
190.0298°
Arg. of periapsis
88.9802°
True anomaly
271.11911°
Mean anomaly
271.1329°
Eccentric anomaly
271.126°
Mean motion
3.77191 °/min
BSTAR
0.000073283
Orbital period
95.44 mins
Loading maneuver chart data...
Loading SW <> Apogee altitude chart data...
Loading historical data...
Loading historical data...
Loading historical data...
Loading historical data...
Loading historical data...
Loading historical data...
Loading historical data...

STARLINK-4710 Visibility forecast

Observer location: undefined°, undefined°

Span
Click to sort rows by Start time (UTC) header in descending order
Start Az.
Max El. time (UTC)
Max El. Az.
Max El.
End time (UTC)
End Az.
6 mins2025-05-10 05:44:02.734Z182.17° SSW2025-05-10 05:47:02.734Z125.54° SE23.708°2025-05-10 05:50:02.734Z74.523° E
5 mins2025-05-10 07:24:02.734Z267.434° W2025-05-10 07:26:02.734Z326.161° NNW34.731°2025-05-10 07:29:02.734Z34.722° NE
5 mins2025-05-10 12:25:02.734Z337.726° N2025-05-10 12:27:02.734Z19.494° NNE26.73°2025-05-10 12:30:02.734Z84.561° E
6 mins2025-05-10 14:04:02.734Z291.692° WNW2025-05-10 14:07:02.734Z214.823° SW34.084°2025-05-10 14:10:02.734Z157.609° S
|